GORIZONT 33 [-]

Last updated on Oct. 21, 2020, 5:57 a.m. UTC

1 26372U 00029A   20294.69751424  .00000021  00000-0  00000-0 0  9999
2 26372  12.8002  21.7121 0002697  27.1268  52.7852  1.00252140 74712
UTC
Height (km)
Latitude
Longitude
Inclination
Orbital Period
UTC large
Height (km)
Speed (km/s)
/
Latitude / Longitude
Inclination (degrees)
Orbital Period (minutes)
Azimuth
Elevation
Range (km)
Doppler Factor
iOS Compass Heading
iOS Angle

Next 30 passes for location: Hong Kong

Rise time Rise Azimuth (degrees) Set time Set Azimuth (degrees) Duration Max altitude (degrees)

No matching passes for this satellites